Location: �perlecques
(50.8057°N, 2.1521°E)
Time: 21:02:43
(UTC+00:00)

Tiros 1 - Pass Details

Date: 06 August 2021
Orbit: 630 x 663 km, 48.4° (Epoch: 28 September)

Event Time Altitude Azimuth Distance (km) Brightness Sun altitude
Rises 18:29:24 0° 262° (W) 2,988 12.0 7.8°
Reaches altitude 10° 18:31:46 10° 260° (W) 2,072 11.1 7.4°
Maximum altitude 18:36:31 67° 179° (S) 712 7.4 6.7°
Drops below altitude 10° 18:41:13 10° 97° (E) 2,054 9.1 6.0°
Sets 18:43:33 0° 95° (E) 2,959 9.9 5.6°
